Location: Newark
(31.5350°N, 35.0986°E)
Time: 15:06:45
(UTC+00:00)

Transit 4A - Pass Details

Date: 19 October 2019
Orbit: 868 x 976 km, 66.8° (Epoch: 12 November)

Event Time Altitude Azimuth Distance (km) Brightness Sun altitude
Rises 12:58:53 0° 320° (NW) 3,510 11.0 24.1°
Reaches altitude 10° 13:01:47 10° 308° (NW) 2,551 10.6 23.5°
Maximum altitude 13:06:33 26° 254° (WSW) 1,651 11.5 22.6°
Drops below altitude 10° 13:11:15 10° 199° (SSW) 2,506 11.0 21.8°
Sets 13:14:05 0° 187° (S) 3,436 11.3 21.2°
